Ocala, FL

12:24 AM EDT on August 25, 2016 (GMT -0400)
Ocala Regional-Taylor

Weather History for KOCF - April, 2014

Change the Weather History Date:

Wednesday, April 2, 2014

  Actual Average Record
Temperature  
Mean Temperature 66 °F -  
Max Temperature 84 °F 78 °F 87 °F (2008)
Min Temperature 48 °F 53 °F 39 °F (2003)
Cooling Degree Days 1    
Growing Degree Days 16 (Base 50)    
Moisture  
Dew Point 49 °F    
Average Humidity 69    
Maximum Humidity 82    
Minimum Humidity 29    
Precipitation  
Precipitation 0.00 in - - ()
Sea Level Pressure  
Sea Level Pressure 30.16 in    
Wind  
Wind Speed 1 mph (SSE)    
Max Wind Speed 8 mph    
Max Gust Speed 16 mph    
Visibility 10 miles    
Events      
Averages and records for this station are not official NWS values.
T = Trace of Precipitation, MM = Missing Value Source: NWS Daily Summary

Daily Weather History Graph

Daily Weather History Graph

Search for Another Location

Airport or City:

Trip Planner

Search our weather history database for the weather conditions in past years. The results will help you decide how hot, cold, wet, or windy it might be!

Date:

Astronomy

Apr. 02, 2014 Rise Set
Actual Time 7:17 AM EDT 7:47 PM EDT
Civil Twilight 6:53 AM EDT 8:11 PM EDT
Nautical Twilight 6:25 AM EDT 8:39 PM EDT
Astronomical Twilight 5:57 AM EDT 9:08 PM EDT
Moon 9:13 AM EDT (4/2) 10:55 PM EDT (4/2)
Length of Visible Light 13h 18m
Length of Day
12h 30m
Waxing Crescent, 10% of the Moon is Illuminated
Apr 2
Waxing Crescent
Apr 7
First Quarter
Apr 15
Full
Apr 22
Last Quarter
Apr 29
New

Hourly Weather History & Observations

Time (EDT) Temp. Heat Index Dew Point Humidity Pressure Visibility Wind Dir Wind Speed Gust Speed Precip Events Conditions
12:15 AM 55.4 °F - 44.6 °F 67% 30.18 in 10.0 mi Calm Calm - N/A   Clear
12:35 AM 55.4 °F - 44.6 °F 67% 30.18 in 10.0 mi Calm Calm - N/A   Clear
12:55 AM 53.6 °F - 44.6 °F 72% 30.18 in 10.0 mi Calm Calm - N/A   Clear
1:15 AM 53.6 °F - 44.6 °F 72% 30.17 in 10.0 mi Calm Calm - N/A   Clear
1:35 AM 51.8 °F - 44.6 °F 76% 30.17 in 10.0 mi Calm Calm - N/A   Clear
1:55 AM 51.8 °F - 44.6 °F 76% 30.17 in 9.0 mi Calm Calm - N/A   Clear
2:15 AM 51.8 °F - 44.6 °F 76% 30.17 in 10.0 mi Calm Calm - N/A   Clear
2:35 AM 51.8 °F - 44.6 °F 76% 30.16 in 10.0 mi Calm Calm - N/A   Clear
2:55 AM 50.0 °F - 42.8 °F 76% 30.16 in 10.0 mi Calm Calm - N/A   Clear
3:15 AM 50.0 °F - 42.8 °F 76% 30.16 in 10.0 mi Calm Calm - N/A   Clear
3:35 AM 50.0 °F - 42.8 °F 76% 30.15 in 10.0 mi Calm Calm - N/A   Clear
3:55 AM 48.2 °F - 42.8 °F 82% 30.16 in 10.0 mi Calm Calm - N/A   Clear
4:15 AM 48.2 °F - 42.8 °F 82% 30.15 in 10.0 mi Calm Calm - N/A   Clear
4:35 AM 48.2 °F - 42.8 °F 82% 30.15 in 10.0 mi Calm Calm - N/A   Clear
4:55 AM 48.2 °F - 42.8 °F 82% 30.15 in 10.0 mi Calm Calm - N/A   Clear
5:15 AM 48.2 °F - 42.8 °F 82% 30.15 in 10.0 mi Calm Calm - N/A   Clear
5:35 AM 48.2 °F - 42.8 °F 82% 30.15 in 10.0 mi Calm Calm - N/A   Clear
5:55 AM 48.2 °F - 42.8 °F 82% 30.16 in 10.0 mi Calm Calm - N/A   Clear
6:15 AM 48.2 °F - 42.8 °F 82% 30.16 in 10.0 mi Calm Calm - N/A   Clear
6:35 AM 48.2 °F - 42.8 °F 82% 30.17 in 9.0 mi Calm Calm - N/A   Clear
6:50 AM 48.2 °F - 42.8 °F 82% 30.17 in 10.0 mi Calm Calm - N/A   Clear
8:50 AM 57.2 °F - 50.0 °F 77% 30.19 in 10.0 mi Calm Calm - N/A   Clear
9:50 AM 66.2 °F - 55.4 °F 68% 30.20 in 10.0 mi South 6.9 mph - N/A   Clear
10:50 AM 73.4 °F - 57.2 °F 57% 30.22 in 1.2 mi North - - N/A   Clear
11:50 AM 75.2 °F - 57.2 °F 53% 30.21 in 10.0 mi South 8.1 mph 16.1 mph N/A   Clear
12:50 PM 78.8 °F - 53.6 °F 42% 30.20 in 10.0 mi South 6.9 mph - N/A   Clear
2:50 PM 82.4 °F - 51.8 °F 35% 30.16 in 10.0 mi South 6.9 mph - N/A   Clear
3:50 PM 82.4 °F - 51.8 °F 35% 30.14 in 10.0 mi South 6.9 mph - N/A   Clear
4:50 PM 84.2 °F - 51.8 °F 33% 30.13 in 10.0 mi SE 6.9 mph - N/A   Clear
5:50 PM 84.2 °F - 48.2 °F 29% 30.13 in 10.0 mi East 4.6 mph - N/A   Clear
6:50 PM 80.6 °F 81.5 °F 60.8 °F 51% 30.13 in 10.0 mi WSW 4.6 mph - N/A   Clear
7:55 PM 73.4 °F - 57.2 °F 57% 30.14 in 10.0 mi Calm Calm - N/A   Clear
8:15 PM 71.6 °F - 57.2 °F 60% 30.15 in 10.0 mi Calm Calm - N/A   Clear
8:35 PM 69.8 °F - 57.2 °F 64% 30.15 in 10.0 mi Calm Calm - N/A   Clear
8:55 PM 68.0 °F - 57.2 °F 68% 30.15 in 10.0 mi Calm Calm - N/A   Clear
9:15 PM 66.2 °F - 57.2 °F 73% 30.15 in 10.0 mi Calm Calm - N/A   Clear
9:35 PM 64.4 °F - 55.4 °F 73% 30.15 in 10.0 mi Calm Calm - N/A   Clear
9:55 PM 64.4 °F - 55.4 °F 73% 30.17 in 10.0 mi East 4.6 mph - N/A   Clear
10:15 PM 66.2 °F - 55.4 °F 68% 30.17 in 10.0 mi Calm Calm - N/A   Clear
10:35 PM 64.4 °F - 55.4 °F 73% 30.17 in 10.0 mi Calm Calm - N/A   Clear
10:55 PM 62.6 °F - 53.6 °F 72% 30.17 in 10.0 mi Calm Calm - N/A   Clear
11:15 PM 60.8 °F - 53.6 °F 77% 30.18 in 10.0 mi SSW 3.5 mph - N/A   Clear
11:35 PM 60.8 °F - 55.4 °F 82% 30.18 in 10.0 mi Calm Calm - N/A   Clear